STARLINK-35250

Last updated on Tue Oct 14 2025 00:02:05 GMT+0000 (Coordinated Universal Time)

1 65603U 25207M 25285.66668981 -.01622773 00000+0 -33735-1 0 9999 2 65603 97.6040 349.1260 0001272 93.5034 280.7605 15.48737227 5840

Satellite not in orbit